Location: The Saddle
(36.8333°N, 80.3417°W)
Time: 05:01:55
(UTC-05:00)

Explorer 11/Cluster Stage 4 - All Passes

Search period start: 19 January 2022 00:00
Search period end: 29 January 2022 00:00
Orbit: 467 x 1255 km, 28.8° (Epoch: 18 January)

Date Brightness Start Highest point End Pass type
(mag) Time Alt. Az. Time Alt. Az. Time Alt. Az.
19 Jan - 05:54:16 10° SW 05:57:34 22° SSE 06:01:23 10° ESE visible
19 Jan - 07:41:05 10° WSW 07:45:24 34° S 07:50:42 10° ESE daylight
19 Jan - 09:28:50 10° WSW 09:33:36 29° S 09:39:18 10° SE daylight
19 Jan - 11:18:09 10° WSW 11:21:56 16° SSW 11:26:05 10° SSE daylight
20 Jan - 05:42:57 10° SW 05:46:12 23° SSE 05:49:55 10° ESE visible
20 Jan - 07:29:54 10° WSW 07:34:01 33° S 07:39:01 10° ESE daylight
20 Jan - 09:17:46 10° WSW 09:22:10 26° SSW 09:27:24 10° SE daylight
20 Jan - 11:07:36 10° SW 11:10:24 13° SSW 11:13:27 10° S daylight
21 Jan - 05:31:41 10° SW 05:34:51 23° SSE 05:38:26 10° ESE visible
21 Jan - 07:18:45 10° WSW 07:22:39 31° S 07:27:20 10° ESE daylight
21 Jan - 09:06:44 10° WSW 09:10:43 23° SSW 09:15:26 10° SE daylight
21 Jan - 10:57:59 10° SSW 10:58:55 10° SSW 10:59:52 10° SSW daylight
22 Jan - 05:20:24 10° SW 05:23:30 24° S 05:27:00 10° ESE visible
22 Jan - 07:07:37 10° WSW 07:11:18 28° S 07:15:40 10° SE daylight
22 Jan - 08:55:47 10° WSW 08:59:20 19° SSW 09:03:24 10° SSE daylight
23 Jan - 03:23:30 10° S 03:24:38 11° SSE 03:25:47 10° SE night (unlit)
23 Jan - 05:09:08 10° SW 05:12:11 24° S 05:15:33 10° ESE visible
23 Jan - 06:56:31 10° WSW 06:59:58 26° S 07:03:59 10° SE visible
23 Jan - 08:44:57 10° SW 08:47:56 16° SSW 08:51:16 10° SSE daylight
24 Jan - 03:11:38 10° S 03:13:18 13° SSE 03:14:58 10° SE night (unlit)
24 Jan - 04:57:52 10° SW 05:00:52 24° S 05:04:08 10° ESE visible
24 Jan - 06:45:25 10° WSW 06:48:38 23° S 06:52:18 10° SE visible
24 Jan - 08:34:19 10° SW 08:36:32 13° SSW 08:38:57 10° S daylight
25 Jan - 02:59:54 10° SSW 03:01:58 14° SSE 03:04:00 10° SE night (unlit)
25 Jan - 04:46:36 10° SW 04:49:34 24° S 04:52:44 10° ESE visible
25 Jan - 06:34:21 10° WSW 06:37:18 21° S 06:40:36 10° SE visible
25 Jan - 08:24:23 10° SSW 08:25:10 10° SSW 08:25:57 10° S daylight
26 Jan - 02:48:15 10° SSW 02:50:38 16° SSE 02:52:58 10° SE night (unlit)
26 Jan - 04:35:20 10° SW 04:38:17 23° S 04:41:20 10° SE visible
26 Jan - 06:23:19 10° SW 06:25:59 18° S 06:28:53 10° SSE visible
27 Jan - 02:36:38 10° SW 02:39:19 18° S 02:41:53 10° SE night (unlit)
27 Jan - 04:24:04 10° SW 04:26:59 23° S 04:29:58 10° SE visible
27 Jan - 06:12:21 10° SW 06:14:40 16° SSW 06:17:07 10° SSE visible
28 Jan - 00:39:50 10° SSE 00:40:16 10° SSE 00:40:42 10° SSE night (unlit)
28 Jan - 02:25:03 10° SW 02:28:01 20° S 02:30:47 10° ESE night (unlit)
28 Jan - 04:12:46 10° WSW 04:15:41 22° S 04:18:36 10° SE visible
28 Jan - 06:01:28 10° SW 06:03:20 13° SSW 06:05:16 10° SSE visible
